EW9060 Weather Reports


time (UTC)temp
C
wind
direction
speed
KPH
gust
KPH
rain 1hr
cm
rain 24hr
cm
rain mn
cm
humidity
%
barometer
mb
20260905100022 14 127 1.6 4.8 0.00 0.00 0.00 77 1014.9
20260905094515 15 130 1.6 4.8 0.00 0.00 0.00 76 1015.0
20260905093016 15 164 0.0 6.4 0.00 0.00 0.00 75 1015.1
20260905091513 15 161 1.6 6.4 0.00 0.00 0.00 74 1015.0
20260905090015 15 139 0.0 6.4 0.00 0.00 0.00 74 1015.1
20260905084509 15 121 3.2 8.0 0.00 0.00 0.00 73 1015.1
20260905083008 15 124 1.6 6.4 0.00 0.00 0.00 73 1015.2
20260905081508 15 133 1.6 8.0 0.00 0.00 0.00 73 1015.2
20260905080007 16 127 0.0 8.0 0.00 0.00 0.00 73 1015.1
20260905074504 16 182 0.0 6.4 0.00 0.00 0.00 73 1015.0
20260905073003 16 159 1.6 8.0 0.00 0.00 0.00 73 1014.8
20260905071503 16 161 1.6 8.0 0.00 0.00 0.00 71 1014.8
20260905070100 16 132 0.0 6.4 0.00 0.00 0.00 70 1014.7
20260905064600 16 150 3.2 9.7 0.00 0.05 0.00 69 1014.6
20260905063102 17 188 1.6 6.4 0.00 0.05 0.00 68 1014.5
20260905061611 17 180 0.0 6.4 0.00 0.05 0.00 66 1014.4
20260905060055 17 157 1.6 8.0 0.00 0.05 0.00 65 1014.4
20260905054555 17 154 1.6 8.0 0.00 0.05 0.00 63 1014.4
20260905053059 18 172 0.0 4.8 0.00 0.05 0.00 61 1014.4
20260905051554 18 182 0.0 4.8 0.00 0.05 0.00 60 1014.4
20260905050053 19 218 1.6 9.7 0.00 0.05 0.00 59 1014.5
20260905044558 19 215 0.0 6.4 0.00 0.05 0.00 58 1014.5
20260905043052 20 188 0.0 8.0 0.00 0.05 0.00 56 1014.4
20260905041554 20 248 1.6 6.4 0.00 0.05 0.00 56 1014.3
20260905040051 20 223 3.2 8.0 0.00 0.05 0.00 55 1014.2
20260905034553 21 142 3.2 9.7 0.00 0.05 0.00 54 1014.0
20260905033050 21 205 3.2 11.3 0.00 0.05 0.00 52 1013.8
20260905031549 21 188 6.4 16.1 0.00 0.05 0.00 50 1013.6
20260905030101 22 231 3.2 12.9 0.00 0.05 0.00 49 1013.6
20260905024548 23 238 3.2 8.0 0.00 0.05 0.00 43 1013.4
20260905023047 23 209 1.6 8.0 0.00 0.05 0.00 39 1013.3
20260905021547 24 207 1.6 6.4 0.00 0.05 0.00 37 1013.3
20260905020059 25 195 0.0 9.7 0.00 0.05 0.00 34 1013.3
20260905014548 25 232 1.6 4.8 0.00 0.05 0.00 35 1013.4
20260905013045 26 153 1.6 8.0 0.00 0.05 0.00 35 1013.4
20260905011543 26 234 3.2 11.3 0.00 0.05 0.00 36 1013.2
20260905010045 26 216 3.2 12.9 0.00 0.05 0.00 36 1013.2
20260905004557 26 153 3.2 11.3 0.00 0.05 0.00 36 1013.1
20260905003041 27 216 0.0 8.0 0.00 0.05 0.00 35 1013.2
20260905001540 26 132 4.8 11.3 0.00 0.05 0.00 36 1013.2
20260905000039 27 203 3.2 12.9 0.00 0.05 0.00 37 1013.3
20260904234538 26 284 0.0 9.7 0.00 0.05 0.00 37 1013.4
20260904233049 26 311 4.8 8.0 0.00 0.05 0.00 38 1013.4
20260904231537 27 205 3.2 9.7 0.00 0.05 0.00 39 1013.6
20260904230033 26 263 0.0 12.9 0.00 0.05 0.00 40 1013.7
20260904224532 26 185 0.0 12.9 0.00 0.05 0.00 44 1013.9
20260904223031 26 317 0.0 4.8 0.00 0.05 0.00 45 1014.1
20260904221530 25 134 1.6 6.4 0.00 0.05 0.00 44 1014.0
20260904220030 25 126 0.0 6.4 0.00 0.05 0.00 45 1014.2
20260904214529 25 288 0.0 4.8 0.00 0.05 0.00 45 1014.3
20260904213030 25 346 3.2 8.0 0.00 0.05 0.00 45 1014.2
20260904211527 25 237 1.6 9.7 0.00 0.05 0.00 46 1014.2
20260904210029 26 303 1.6 11.3 0.00 0.05 0.00 46 1014.3
20260904204524 25 330 0.0 8.0 0.00 0.05 0.00 44 1014.3
20260904203023 25 241 3.2 9.7 0.00 0.05 0.00 46 1014.4
20260904201520 25 294 3.2 9.7 0.00 0.05 0.00 49 1014.4
20260904200018 23 200 0.0 6.4 0.00 0.05 0.00 53 1014.4
20260904194512 22 140 3.2 11.3 0.00 0.05 0.00 55 1014.6
20260904193008 22 128 4.8 9.7 0.00 0.05 0.00 58 1014.7
20260904191506 21 53 3.2 8.0 0.00 0.05 0.00 61 1014.8
20260904190005 21 181 1.6 3.2 0.00 0.05 0.00 63 1014.9
20260904184505 21 288 0.0 8.0 0.00 0.05 0.00 63 1015.0
20260904183004 21 325 0.0 8.0 0.00 0.05 0.00 62 1015.0
20260904181501 21 360 0.0 9.7 0.00 0.05 0.00 62 1015.0
20260904180100 21 216 0.0 11.3 0.00 0.05 0.00 64 1015.0
20260904174606 20 108 1.6 11.3 0.00 0.05 0.00 67 1015.1
20260904173102 19 126 3.2 9.7 0.00 0.05 0.00 70 1015.0
20260904171558 18 211 0.0 6.4 0.00 0.05 0.00 72 1014.9
20260904170045 18 63 1.6 9.7 0.00 0.05 0.00 73 1014.9
20260904164548 18 117 3.2 9.7 0.00 0.05 0.00 75 1014.8
20260904163039 18 52 3.2 8.0 0.00 0.05 0.00 75 1014.6
20260904161536 17 145 1.6 3.2 0.00 0.05 0.00 78 1014.6
20260904160034 17 175 1.6 8.0 0.00 0.05 0.00 79 1014.5
20260904154533 16 161 0.0 9.7 0.00 0.05 0.00 81 1014.5
20260904153034 16 11 3.2 8.0 0.00 0.05 0.00 82 1014.4
20260904151529 16 11 3.2 8.0 0.00 0.05 0.00 84 1014.4
20260904150035 15 11 1.6 6.4 0.00 0.05 0.00 86 1014.2
20260904144522 15 15 1.6 8.0 0.00 0.05 0.00 87 1014.0
20260904143021 14 129 1.6 4.8 0.00 0.05 0.00 88 1013.9
20260904141518 15 152 0.0 8.0 0.00 0.05 0.00 87 1013.7
20260904140019 15 169 0.0 3.2 0.00 0.05 0.00 87 1013.6
20260904134514 15 194 0.0 4.8 0.00 0.05 0.00 86 1013.2
20260904133012 15 227 0.0 4.8 0.00 0.05 0.00 86 1013.1
20260904131509 15 171 0.0 4.8 0.00 0.05 0.00 85 1013.0
20260904130007 15 160 0.0 8.0 0.00 0.05 0.00 85 1012.9
20260904124507 16 150 0.0 3.2 0.00 0.05 0.00 85 1012.8
20260904123003 16 164 0.0 9.7 0.00 0.05 0.00 85 1012.6
20260904121502 16 153 0.0 8.0 0.00 0.05 0.00 85 1012.6
20260904120103 16 192 1.6 6.4 0.00 0.05 0.00 85 1012.5
20260904114559 16 238 0.0 1.6 0.00 0.05 0.00 86 1012.5
20260904113058 16 185 0.0 1.6 0.00 0.05 0.00 86 1012.5
20260904111556 16 190 0.0 3.2 0.00 0.05 0.00 86 1012.4
20260904110055 16 148 0.0 4.8 0.00 0.05 0.00 86 1012.3
20260904104603 16 159 0.0 8.0 0.00 0.05 0.00 86 1012.3
20260904103108 16 150 3.2 8.0 0.00 0.05 0.00 86 1012.2
20260904101554 16 172 0.0 4.8 0.00 0.05 0.00 87 1012.1